SCP
-0 -0 -0 0 0 0 0 0 -0 0 0 -0 -0 -0 -0 -0 -0 0 0 0 -0 0 0 0 0 0 0 0 -0 -0 -0 -0 -0 -0 -0 -0 -0 -0 -0 -0 -0 0 -0 -0 0 0 0 0 0
0 0 0 0 0 0 0 -0 -0 -0 -0 -0 -0 -0 -0 -0 -0 -0 0 -0 -0 0 0 0 0 0 0 -0 0 0 -0 -0 -0 -0 -0 -0 -0 -0 -0 -0 0 -0 -0 -0 -0 0 0 0 0
0 0 -0 0 0 0 0 -0 -0 -0 -0 -0 -0 -0 -0 -0 -0 -0 0 -0 -0 0 0 0 0 0 0 0 0 0 -0 -0 -0 -0 -0 -0 -0 -0 -0 0 -0 0 0 0 0 0 0 0 -0
0 -0 0 0 0 0 -0 -0 -0 0 -0 -0 -0 0 0 0 0 -0 -0 -0 -0 0 0 0 0 0 0 0 0 0 0 -0 -0 -0 -0 -0 -0 -0 0 0 0 0 0 0 0 0 0 0 -0
0 -0 0 0 -0 -0 -0 0 -0 0 -0 -0 -0 0 0 0 -0 -0 -0 -0 -0 0 0 0 0 0 0 0 0 0 0 -0 -0 0 0 -0 -0 -0 -0 0 0 0 0 0 0 0 -0 -0 -0
-0 -0 0 0 0 0 0 -0 0 0 -0 -0 -0 -0 0 0 -0 -0 -0 -0 -0 -0 0 0 -0 -0 -0 0 0 -0 -0 -0 -0 0 0 -0 -0 -0 -0 0 0 0 0 0 -0 -0 -0 -0 0
-0 -0 -0 0 0 0 0 -0 -0 -0 -0 -0 -0 -0 0 0 -0 -0 -0 -0 -0 -0 -0 0 0 0 -0 0 -0 -0 -0 -0 0 -0 -0 -0 -0 -0 0 -0 -0 0 0 -0 -0 0 -0 -0 0
0 -0 -0 0 0 -0 -0 0 0 -0 0 -0 -0 -0 0 0 -0 -0 -0 -0 0 0 -0 -0 0 0 0 0 -0 -0 -0 -0 -0 -0 -0 -0 -0 -0 0 0 0 -0 0 -0 -0 -0 0 -0 -0
0 0 0 -0 -0 -0 -0 0 -0 -0 -0 -0 -0 0 0 -0 -0 -0 -0 0 0 0 0 0 0 0 0 0 0 -0 -0 -0 -0 -0 -0 0 0 -0 0 0 0 0 0 0 -0 0 0 0 0
-0 -0 0 0 0 -0 -0 0 0 -0 -0 -0 -0 -0 -0 -0 -0 -0 -0 0 0 0 0 -0 0 -0 0 -0 0 0 -0 0 -0 -0 0 0 0 0 0 0 0 0 0 0 -0 0 0 0 0
0 -0 0 0 -0 0 -0 -0 -0 -0 -0 -0 -0 -0 -0 -0 -0 -0 0 0 0 0 -0 -0 0 -0 -0 -0 -0 0 0 0 -0 0 0 0 0 0 0 0 0 0 0 0 -0 0 0 0 0
-0 0 -0 0 -0 -0 -0 0 -0 0 -0 -0 -0 -0 -0 -0 -0 -0 -0 0 0 0 -0 -0 -0 -0 -0 -0 -0 0 0 -0 0 0 0 0 0 0 0 0 0 0 0 0 0 0 0 0 0
-0 0 0 0 -0 -0 -0 0 0 0 -0 -0 -0 -0 -0 -0 -0 -0 -0 -0 0 0 0 0 -0 -0 -0 -0 0 0 0 0 0 0 0 0 0 0 0 0 0 0 0 0 0 -0 0 0 0
-0 -0 -0 0 0 0 -0 0 0 0 0 0 -0 -0 -0 -0 -0 -0 -0 0 0 0 0 0 0 -0 -0 -0 -0 -0 0 0 0 0 0 0 0 0 0 0 0 0 0 0 0 0 0 0 0
-0 0 -0 -0 0 0 -0 0 0 0 0 -0 -0 -0 -0 -0 -0 -0 -0 -0 -0 0 0 0 0 0 0 0 -0 -0 0 0 0 0 0 0 0 0 0 0 0 0 0 0 0 -0 -0 0 0
0 0 -0 -0 -0 0 0 0 -0 -0 0 0 0 -0 -0 -0 -0 -0 -0 -0 -0 -0 0 -0 -0 -0 0 -0 0 0 0 0 0 0 0 0 0 0 0 0 0 0 0 0 0 -0 0 0 0
0 0 0 -0 -0 -0 0 0 -0 0 -0 -0 -0 -0 -0 -0 -0 -0 -0 -0 -0 -0 0 -0 0 0 -0 -0 0 0 0 0 0 0 0 0 0 0 0 0 0 0 0 -0 0 -0 0 0 0
-0 0 -0 0 -0 0 0 -0 0 0 0 0 0 -0 -0 -0 -0 -0 -0 -0 -0 -0 -0 -0 -0 0 0 -0 -0 0 0 0 0 0 0 0 0 0 0 0 0 0 0 0 -0 -0 0 0 0
-0 -0 -0 -0 -0 0 0 0 0 -0 -0 0 0 0 -0 -0 -0 -0 -0 -0 -0 -0 0 0 -0 0 -0 -0 -0 -0 -0 0 0 0 0 0 0 0 0 0 0 0 0 0 0 -0 0 -0 -0
0 -0 0 -0 0 0 0 0 0 -0 -0 -0 -0 -0 -0 -0 -0 -0 -0 -0 -0 -0 -0 0 -0 0 0 0 -0 -0 0 0 0 -0 0 0 0 0 0 0 0 0 0 -0 0 -0 0 0 -0
-0 -0 -0 -0 -0 0 0 0 0 0 -0 -0 -0 -0 0 -0 -0 -0 -0 -0 0 0 0 0 0 0 0 0 0 0 0 0 0 0 -0 0 0 0 0 0 0 0 0 0 0 -0 0 0 -0
0 -0 -0 -0 0 0 -0 -0 -0 0 -0 0 0 -0 -0 -0 -0 0 -0 0 0 0 0 0 0 0 0 0 -0 -0 -0 -0 0 -0 -0 0 0 0 0 0 0 0 0 0 -0 -0 -0 -0 0
0 -0 -0 -0 -0 0 0 0 -0 0 0 -0 0 -0 -0 -0 -0 -0 -0 0 0 0 0 0 0 0 0 0 -0 -0 -0 -0 0 0 0 0 0 0 0 0 0 0 0 -0 -0 -0 -0 -0 0
0 0 0 0 0 0 0 0 -0 -0 -0 -0 -0 -0 -0 -0 -0 -0 0 0 0 0 0 0 -0 -0 0 0 0 -0 -0 -0 0 0 0 -0 -0 0 0 0 0 0 0 0 0 0 0 0 -0
-0 0 0 0 0 -0 0 0 -0 0 0 -0 -0 -0 -0 -0 -0 -0 0 0 0 0 0 0 0 0 0 0 0 -0 -0 -0 0 0 -0 -0 -0 -0 -0 0 0 0 0 -0 -0 0 -0 -0 -0
-0 0 0 -0 0 -0 -0 0 0 0 -0 0 0 -0 -0 -0 -0 -0 -0 -0 0 0 0 -0 0 0 0 0 0 0 0 -0 -0 -0 0 -0 -0 -0 -0 -0 0 0 0 0 0 0 0 0 0
0 0 0 -0 0 0 0 0 -0 0 -0 0 0 -0 -0 -0 -0 -0 -0 0 -0 0 -0 0 0 0 0 0 0 0 -0 0 0 0 0 0 -0 -0 -0 -0 -0 0 0 -0 0 0 0 0 0
0 0 0 0 0 0 0 -0 0 0 -0 -0 0 0 0 -0 -0 -0 -0 -0 0 0 0 0 0 0 0 0 0 0 0 -0 -0 -0 -0 -0 0 0 0 0 0 -0 -0 -0 0 0 0 0 0
0 0 0 0 0 0 -0 -0 -0 -0 0 -0 0 0 -0 -0 -0 -0 -0 0 -0 0 -0 0 -0 -0 0 0 0 0 0 0 -0 -0 -0 -0 0 -0 0 0 0 0 0 0 0 0 0 0 0
0 0 0 0 0 0 -0 0 0 -0 -0 -0 0 0 0 -0 -0 -0 -0 -0 -0 -0 -0 -0 -0 -0 0 0 0 0 0 -0 -0 -0 -0 0 0 0 0 0 0 0 0 0 0 0 0 0 0
Wind_Speed_500mb
3 7 6 7 7 6 6 4 8 12 11 30 42 34 22 27 5 7 29 28 26 30 28 27 25 26 28 28 28 27 25 24 23 24 24 24 23 21 20 19 19 22 26 25 26 23 28 25 23
9 8 12 8 8 7 10 17 25 30 44 64 53 39 32 12 20 33 39 26 23 25 29 29 28 27 28 29 29 26 23 23 23 24 24 23 18 16 17 23 23 22 27 27 25 23 27 24 24
9 7 8 7 6 4 6 14 22 40 44 14 16 24 11 11 23 27 34 33 29 27 30 30 29 30 30 30 29 27 25 23 21 22 22 21 17 17 22 27 23 24 26 24 25 24 27 26 27
7 5 12 6 4 10 9 18 24 6 36 29 40 20 19 17 26 30 34 32 25 30 30 30 32 33 33 31 28 25 24 24 20 21 23 21 15 23 28 26 26 24 24 20 18 22 25 25 21
12 5 8 7 2 7 19 37 38 8 15 33 29 11 14 25 35 37 29 25 23 21 25 31 35 34 33 30 26 24 23 21 22 21 23 22 18 28 24 26 27 23 20 19 17 18 21 20 17
12 9 6 5 9 6 19 36 23 10 48 46 40 29 13 38 41 36 28 21 15 22 29 32 35 35 33 29 26 26 22 18 18 23 25 25 30 29 27 26 23 20 20 18 17 17 18 17 19
8 7 5 10 3 4 12 28 30 37 41 18 43 13 33 38 40 30 25 21 21 20 23 28 31 31 36 34 33 29 24 18 18 27 31 31 39 28 27 27 25 23 21 20 19 18 12 13 19
16 9 12 10 12 6 16 13 50 49 14 54 42 16 25 52 45 37 27 24 24 20 25 29 26 27 30 34 35 32 31 22 23 34 36 40 36 25 26 27 27 24 23 22 20 18 14 6 9
15 6 7 15 22 13 43 12 30 38 56 25 10 59 62 61 48 41 33 27 24 28 29 26 24 23 23 26 30 37 34 25 22 42 47 40 33 28 26 28 27 23 24 21 14 18 14 17 3
7 6 15 16 12 12 7 11 16 35 41 46 57 58 63 61 52 43 40 36 28 31 31 28 20 18 22 22 32 36 30 26 39 47 45 34 28 28 23 26 23 23 23 18 10 22 25 8 16
12 7 8 12 30 14 5 22 31 47 28 70 70 73 67 65 53 41 40 34 28 27 28 28 23 27 25 27 31 33 34 34 51 41 33 30 26 26 25 26 25 22 21 17 7 18 14 11 14
2 5 6 12 13 5 8 11 23 13 41 64 77 73 73 60 53 43 41 39 30 27 28 28 29 36 39 40 38 33 32 48 37 28 37 37 33 31 27 30 27 21 9 9 6 6 12 2 15
16 10 12 22 32 23 23 11 7 28 49 57 66 74 69 57 50 40 36 37 33 30 32 29 32 34 34 35 40 40 42 40 33 36 28 23 18 18 16 14 10 5 8 13 2 8 11 6 14
12 25 10 21 24 11 19 9 9 20 22 46 65 71 66 54 52 46 42 38 34 29 28 27 25 27 28 28 37 40 43 39 30 25 19 10 12 9 8 10 5 2 5 7 3 17 5 12 7
42 12 7 12 9 10 45 10 10 2 4 38 36 45 59 54 55 50 37 35 33 26 22 19 24 24 22 28 32 38 37 34 30 21 16 16 13 8 14 8 3 10 3 11 12 15 20 11 16
8 6 5 7 15 16 1 8 16 11 14 20 12 32 61 56 60 50 44 35 38 31 21 17 26 24 30 30 30 28 23 20 17 18 12 8 13 19 20 14 12 12 8 6 16 23 16 22 27
4 4 8 7 24 9 8 9 40 39 20 23 26 57 59 63 63 57 49 42 34 30 24 25 27 27 30 32 29 22 19 19 16 6 16 23 19 14 13 7 10 13 3 8 10 17 13 18 17
12 6 8 3 17 10 11 11 20 44 37 31 14 38 48 67 73 58 54 43 37 30 29 32 26 27 33 31 24 26 22 18 16 6 27 23 26 19 13 11 12 11 6 7 13 7 8 12 13
18 15 8 9 14 12 13 6 12 33 37 34 28 21 37 70 66 61 54 44 39 36 41 39 36 30 26 28 26 35 29 20 18 19 17 20 22 20 18 12 19 13 3 6 9 4 8 18 21
12 17 12 26 15 8 12 11 6 29 45 48 53 38 31 54 63 66 62 51 50 43 43 42 43 36 26 29 31 36 30 25 22 21 17 15 15 17 19 11 21 14 4 6 5 9 2 9 20
10 18 19 8 19 5 8 10 9 14 29 37 43 45 42 68 68 59 67 60 58 46 53 43 48 37 29 29 37 33 39 33 27 24 19 18 19 22 19 17 13 21 11 6 3 2 5 1 3
12 36 30 28 25 10 19 8 11 12 13 25 39 43 45 80 65 56 70 61 61 54 51 49 47 41 38 35 40 38 43 39 31 32 25 22 17 26 30 27 18 17 12 10 15 8 11 14 17
21 24 36 41 26 9 9 3 15 8 12 17 37 44 61 76 74 61 64 61 59 56 59 55 52 46 42 41 42 40 37 46 40 37 33 26 21 26 32 31 27 19 18 21 17 10 8 6 5
9 9 16 10 5 4 11 12 10 10 29 17 36 45 69 76 74 69 64 50 63 43 60 62 61 52 46 45 47 45 44 40 44 39 36 27 18 24 32 31 28 31 25 21 30 19 10 4 4
9 12 6 7 7 10 5 8 16 14 11 28 45 52 74 78 74 72 65 60 68 49 54 61 62 60 48 48 49 48 39 34 44 37 40 38 30 25 30 31 30 30 28 27 24 22 15 11 8
11 18 12 13 7 7 9 1 11 13 39 33 34 56 71 86 83 79 68 69 64 68 56 57 67 64 52 50 52 50 40 37 38 43 42 42 36 26 21 31 24 28 28 31 32 26 20 17 16
7 5 13 14 2 7 10 11 9 10 8 12 23 57 62 68 80 81 79 68 53 65 58 62 65 66 60 52 56 52 47 43 41 41 38 38 39 33 30 31 29 25 27 24 25 29 30 26 20
16 12 6 6 7 6 8 6 10 13 17 14 17 36 47 56 69 75 67 75 58 42 66 67 79 66 62 53 55 54 55 47 43 43 41 42 35 32 31 32 36 38 31 26 25 25 26 31 26
4 3 7 10 11 11 6 12 14 19 23 14 24 48 56 57 62 62 71 79 70 47 42 61 70 67 57 57 53 52 52 53 55 48 48 47 41 42 39 44 44 46 37 31 26 26 27 32 27
17 16 13 9 6 3 8 8 14 15 19 35 41 44 41 50 52 61 68 75 79 69 51 57 64 69 69 56 51 52 54 51 51 60 54 57 50 46 39 31 41 41 42 32 29 27 26 31 33
Wind_Direction_500mb
167 94 86 74 58 52 329 281 152 124 59 71 84 93 95 49 45 161 145 148 154 157 157 155 154 152 155 153 151 149 143 136 133 131 128 125 122 128 138 130 124 105 113 111 110 113 116 119 128
194 205 70 74 62 47 322 333 92 95 122 102 83 78 54 63 87 122 159 168 159 164 163 160 155 152 156 158 160 157 157 152 144 136 128 121 125 120 116 120 126 119 110 107 109 113 117 129 136
139 144 68 77 74 41 287 352 102 110 134 114 103 70 69 89 130 142 152 157 165 169 165 168 161 158 155 157 159 161 161 161 161 149 140 134 135 102 125 134 123 121 112 115 107 108 114 129 141
45 78 74 57 153 223 252 304 299 153 91 73 113 73 72 130 144 142 151 166 157 151 167 171 169 163 160 160 158 159 162 162 172 169 152 147 147 118 121 126 124 121 115 106 101 101 111 134 143
27 311 73 76 223 274 287 277 310 143 87 101 99 95 80 120 137 144 152 158 163 176 188 186 182 181 176 171 168 169 172 168 175 175 159 154 148 132 132 128 125 116 109 102 98 86 95 118 126
16 74 67 168 184 228 294 291 300 222 105 106 98 102 97 135 139 144 149 154 143 168 177 183 190 196 196 193 188 181 176 177 186 174 162 158 147 138 135 131 123 115 110 103 88 85 94 121 163
159 76 345 98 140 267 265 264 264 140 139 126 131 105 137 151 148 144 139 127 132 146 168 172 172 189 198 197 193 190 186 178 165 157 163 159 143 136 140 129 117 120 119 101 85 88 110 133 154
137 127 158 141 187 259 238 267 185 150 113 142 119 153 163 158 152 151 130 126 121 127 156 161 168 172 180 184 191 191 183 161 148 160 155 147 143 139 140 130 123 123 111 102 100 112 100 79 165
155 75 162 163 156 217 219 264 180 150 138 153 186 150 150 156 160 151 138 130 131 111 128 140 147 149 164 171 178 178 178 154 158 164 147 148 145 140 136 127 124 122 120 115 131 96 85 37 151
115 163 197 192 185 202 227 243 321 137 146 108 122 142 150 159 160 155 151 140 134 123 126 129 126 146 161 167 168 169 166 154 153 147 143 151 142 134 138 127 126 128 131 128 110 82 47 231 336
188 203 161 207 198 215 312 37 70 125 138 144 146 156 161 162 164 156 157 150 133 121 135 128 118 118 138 156 155 166 158 149 152 144 128 128 130 126 124 126 124 131 122 114 68 64 100 96 81
321 298 353 121 169 136 355 70 73 125 135 156 154 160 163 166 165 161 154 156 141 143 134 141 131 120 121 134 131 134 145 142 138 130 115 114 109 107 113 115 122 132 131 116 188 293 11 93 99
17 96 51 90 119 108 94 83 106 128 148 163 158 161 169 170 164 163 153 147 135 143 138 128 143 143 137 132 129 124 133 139 113 119 109 107 100 96 106 126 130 151 138 89 6 89 184 87 79
311 96 71 96 127 127 81 351 346 99 139 165 169 170 171 173 170 168 167 157 149 146 149 153 153 131 153 143 142 128 129 133 127 121 117 125 128 110 127 146 123 62 109 29 57 319 54 67 101
53 53 9 92 131 112 126 16 332 177 193 169 172 169 181 185 177 175 171 166 160 158 154 167 168 164 165 153 158 140 141 138 134 136 141 130 146 170 157 188 204 283 259 26 21 355 18 13 60
60 94 287 213 182 193 37 178 216 203 215 209 247 177 169 185 184 182 177 175 173 172 166 182 175 161 151 152 156 156 159 150 140 132 168 170 179 166 172 203 169 120 153 11 15 41 61 56 119
110 146 231 163 210 162 191 172 213 207 213 287 295 166 169 176 190 187 180 182 186 184 168 164 171 181 163 155 166 175 167 172 165 171 193 218 205 211 207 190 166 151 110 25 14 42 53 58 77
160 148 254 164 188 174 205 222 184 206 209 236 163 180 177 177 185 187 183 189 191 182 179 173 174 185 178 172 169 178 173 178 185 134 175 203 220 211 190 196 185 152 40 65 83 62 79 58 75
143 134 169 338 210 159 200 188 201 204 214 219 191 174 193 183 178 186 190 191 190 183 183 185 183 184 203 196 181 179 186 192 202 191 180 194 206 202 180 161 192 168 91 135 69 58 71 57 63
123 140 184 181 196 114 213 215 238 209 210 215 200 206 167 180 184 187 190 193 193 193 198 198 197 195 206 215 197 189 187 190 198 203 202 201 228 228 203 201 176 197 218 203 64 353 276 63 51
136 181 191 172 161 73 124 295 239 209 233 216 216 209 179 178 173 181 188 188 193 197 199 210 201 203 209 210 200 205 189 195 207 206 212 238 240 222 208 225 204 200 197 178 187 263 65 83 22
169 207 190 164 145 212 189 246 258 213 215 228 231 210 184 179 175 184 184 192 197 201 209 216 212 218 216 204 204 202 203 206 205 218 234 239 246 215 210 220 218 215 231 200 200 217 111 81 73
224 153 205 171 175 124 210 59 269 124 235 231 227 204 198 189 186 191 194 191 198 206 208 218 222 222 220 223 221 217 218 212 219 219 226 236 231 215 202 216 221 211 219 216 191 186 134 123 96
241 120 54 119 140 9 229 164 275 206 226 205 223 207 199 194 199 203 202 212 203 207 210 216 222 226 223 228 226 228 222 220 218 217 222 223 214 212 205 212 214 215 219 208 213 201 197 182 262
107 65 13 8 7 221 172 173 232 221 188 204 207 200 198 200 196 198 206 206 203 213 214 217 219 229 227 225 225 223 223 222 219 223 231 232 227 216 211 212 221 219 220 213 217 217 214 200 211
189 148 155 196 195 268 50 280 260 239 188 207 194 187 191 202 207 206 212 210 214 218 217 210 225 228 231 228 218 222 225 224 233 232 235 230 232 225 212 224 228 225 229 234 240 242 236 230 204
219 142 193 103 318 77 318 309 298 15 293 124 147 180 182 200 213 213 207 209 210 208 209 215 220 228 231 232 221 222 224 222 224 219 222 221 237 236 228 224 222 224 231 231 243 250 246 233 209
153 169 69 27 140 147 300 268 239 284 254 247 170 178 186 200 206 212 209 207 208 218 227 230 227 229 228 232 223 223 229 230 224 222 219 227 232 241 246 240 232 228 224 234 246 244 237 220 216
303 225 79 122 126 146 187 262 216 218 206 179 170 179 182 191 203 214 218 214 209 204 231 211 218 224 226 228 231 226 229 232 234 226 220 228 238 246 254 255 259 241 231 227 238 236 225 221 222
180 198 136 128 220 103 157 263 292 158 144 153 177 180 187 196 197 213 220 219 220 217 231 215 226 231 237 232 235 232 233 231 233 233 225 229 237 242 248 246 247 247 242 228 224 235 233 238 233
Wind_Speed_850mb
3 7 6 7 7 6 6 4 8 12 11 30 42 34 22 27 5 7 29 28 26 30 28 27 25 26 28 28 28 27 25 24 23 24 24 24 23 21 20 19 19 22 26 25 26 23 28 25 23
9 8 12 8 8 7 10 17 25 30 44 64 53 39 32 12 20 33 39 26 23 25 29 29 28 27 28 29 29 26 23 23 23 24 24 23 18 16 17 23 23 22 27 27 25 23 27 24 24
9 7 8 7 6 4 6 14 22 40 44 14 16 24 11 11 23 27 34 33 29 27 30 30 29 30 30 30 29 27 25 23 21 22 22 21 17 17 22 27 23 24 26 24 25 24 27 26 27
7 5 12 6 4 10 9 18 24 6 36 29 40 20 19 17 26 30 34 32 25 30 30 30 32 33 33 31 28 25 24 24 20 21 23 21 15 23 28 26 26 24 24 20 18 22 25 25 21
12 5 8 7 2 7 19 37 38 8 15 33 29 11 14 25 35 37 29 25 23 21 25 31 35 34 33 30 26 24 23 21 22 21 23 22 18 28 24 26 27 23 20 19 17 18 21 20 17
12 9 6 5 9 6 19 36 23 10 48 46 40 29 13 38 41 36 28 21 15 22 29 32 35 35 33 29 26 26 22 18 18 23 25 25 30 29 27 26 23 20 20 18 17 17 18 17 19
8 7 5 10 3 4 12 28 30 37 41 18 43 13 33 38 40 30 25 21 21 20 23 28 31 31 36 34 33 29 24 18 18 27 31 31 39 28 27 27 25 23 21 20 19 18 12 13 19
16 9 12 10 12 6 16 13 50 49 14 54 42 16 25 52 45 37 27 24 24 20 25 29 26 27 30 34 35 32 31 22 23 34 36 40 36 25 26 27 27 24 23 22 20 18 14 6 9
15 6 7 15 22 13 43 12 30 38 56 25 10 59 62 61 48 41 33 27 24 28 29 26 24 23 23 26 30 37 34 25 22 42 47 40 33 28 26 28 27 23 24 21 14 18 14 17 3
7 6 15 16 12 12 7 11 16 35 41 46 57 58 63 61 52 43 40 36 28 31 31 28 20 18 22 22 32 36 30 26 39 47 45 34 28 28 23 26 23 23 23 18 10 22 25 8 16
12 7 8 12 30 14 5 22 31 47 28 70 70 73 67 65 53 41 40 34 28 27 28 28 23 27 25 27 31 33 34 34 51 41 33 30 26 26 25 26 25 22 21 17 7 18 14 11 14
2 5 6 12 13 5 8 11 23 13 41 64 77 73 73 60 53 43 41 39 30 27 28 28 29 36 39 40 38 33 32 48 37 28 37 37 33 31 27 30 27 21 9 9 6 6 12 2 15
16 10 12 22 32 23 23 11 7 28 49 57 66 74 69 57 50 40 36 37 33 30 32 29 32 34 34 35 40 40 42 40 33 36 28 23 18 18 16 14 10 5 8 13 2 8 11 6 14
12 25 10 21 24 11 19 9 9 20 22 46 65 71 66 54 52 46 42 38 34 29 28 27 25 27 28 28 37 40 43 39 30 25 19 10 12 9 8 10 5 2 5 7 3 17 5 12 7
42 12 7 12 9 10 45 10 10 2 4 38 36 45 59 54 55 50 37 35 33 26 22 19 24 24 22 28 32 38 37 34 30 21 16 16 13 8 14 8 3 10 3 11 12 15 20 11 16
8 6 5 7 15 16 1 8 16 11 14 20 12 32 61 56 60 50 44 35 38 31 21 17 26 24 30 30 30 28 23 20 17 18 12 8 13 19 20 14 12 12 8 6 16 23 16 22 27
4 4 8 7 24 9 8 9 40 39 20 23 26 57 59 63 63 57 49 42 34 30 24 25 27 27 30 32 29 22 19 19 16 6 16 23 19 14 13 7 10 13 3 8 10 17 13 18 17
12 6 8 3 17 10 11 11 20 44 37 31 14 38 48 67 73 58 54 43 37 30 29 32 26 27 33 31 24 26 22 18 16 6 27 23 26 19 13 11 12 11 6 7 13 7 8 12 13
18 15 8 9 14 12 13 6 12 33 37 34 28 21 37 70 66 61 54 44 39 36 41 39 36 30 26 28 26 35 29 20 18 19 17 20 22 20 18 12 19 13 3 6 9 4 8 18 21
12 17 12 26 15 8 12 11 6 29 45 48 53 38 31 54 63 66 62 51 50 43 43 42 43 36 26 29 31 36 30 25 22 21 17 15 15 17 19 11 21 14 4 6 5 9 2 9 20
10 18 19 8 19 5 8 10 9 14 29 37 43 45 42 68 68 59 67 60 58 46 53 43 48 37 29 29 37 33 39 33 27 24 19 18 19 22 19 17 13 21 11 6 3 2 5 1 3
12 36 30 28 25 10 19 8 11 12 13 25 39 43 45 80 65 56 70 61 61 54 51 49 47 41 38 35 40 38 43 39 31 32 25 22 17 26 30 27 18 17 12 10 15 8 11 14 17
21 24 36 41 26 9 9 3 15 8 12 17 37 44 61 76 74 61 64 61 59 56 59 55 52 46 42 41 42 40 37 46 40 37 33 26 21 26 32 31 27 19 18 21 17 10 8 6 5
9 9 16 10 5 4 11 12 10 10 29 17 36 45 69 76 74 69 64 50 63 43 60 62 61 52 46 45 47 45 44 40 44 39 36 27 18 24 32 31 28 31 25 21 30 19 10 4 4
9 12 6 7 7 10 5 8 16 14 11 28 45 52 74 78 74 72 65 60 68 49 54 61 62 60 48 48 49 48 39 34 44 37 40 38 30 25 30 31 30 30 28 27 24 22 15 11 8
11 18 12 13 7 7 9 1 11 13 39 33 34 56 71 86 83 79 68 69 64 68 56 57 67 64 52 50 52 50 40 37 38 43 42 42 36 26 21 31 24 28 28 31 32 26 20 17 16
7 5 13 14 2 7 10 11 9 10 8 12 23 57 62 68 80 81 79 68 53 65 58 62 65 66 60 52 56 52 47 43 41 41 38 38 39 33 30 31 29 25 27 24 25 29 30 26 20
16 12 6 6 7 6 8 6 10 13 17 14 17 36 47 56 69 75 67 75 58 42 66 67 79 66 62 53 55 54 55 47 43 43 41 42 35 32 31 32 36 38 31 26 25 25 26 31 26
4 3 7 10 11 11 6 12 14 19 23 14 24 48 56 57 62 62 71 79 70 47 42 61 70 67 57 57 53 52 52 53 55 48 48 47 41 42 39 44 44 46 37 31 26 26 27 32 27
17 16 13 9 6 3 8 8 14 15 19 35 41 44 41 50 52 61 68 75 79 69 51 57 64 69 69 56 51 52 54 51 51 60 54 57 50 46 39 31 41 41 42 32 29 27 26 31 33
Wind_Direction_850mb
167 94 86 74 58 52 329 281 152 124 59 71 84 93 95 49 45 161 145 148 154 157 157 155 154 152 155 153 151 149 143 136 133 131 128 125 122 128 138 130 124 105 113 111 110 113 116 119 128
194 205 70 74 62 47 322 333 92 95 122 102 83 78 54 63 87 122 159 168 159 164 163 160 155 152 156 158 160 157 157 152 144 136 128 121 125 120 116 120 126 119 110 107 109 113 117 129 136
139 144 68 77 74 41 287 352 102 110 134 114 103 70 69 89 130 142 152 157 165 169 165 168 161 158 155 157 159 161 161 161 161 149 140 134 135 102 125 134 123 121 112 115 107 108 114 129 141
45 78 74 57 153 223 252 304 299 153 91 73 113 73 72 130 144 142 151 166 157 151 167 171 169 163 160 160 158 159 162 162 172 169 152 147 147 118 121 126 124 121 115 106 101 101 111 134 143
27 311 73 76 223 274 287 277 310 143 87 101 99 95 80 120 137 144 152 158 163 176 188 186 182 181 176 171 168 169 172 168 175 175 159 154 148 132 132 128 125 116 109 102 98 86 95 118 126
16 74 67 168 184 228 294 291 300 222 105 106 98 102 97 135 139 144 149 154 143 168 177 183 190 196 196 193 188 181 176 177 186 174 162 158 147 138 135 131 123 115 110 103 88 85 94 121 163
159 76 345 98 140 267 265 264 264 140 139 126 131 105 137 151 148 144 139 127 132 146 168 172 172 189 198 197 193 190 186 178 165 157 163 159 143 136 140 129 117 120 119 101 85 88 110 133 154
137 127 158 141 187 259 238 267 185 150 113 142 119 153 163 158 152 151 130 126 121 127 156 161 168 172 180 184 191 191 183 161 148 160 155 147 143 139 140 130 123 123 111 102 100 112 100 79 165
155 75 162 163 156 217 219 264 180 150 138 153 186 150 150 156 160 151 138 130 131 111 128 140 147 149 164 171 178 178 178 154 158 164 147 148 145 140 136 127 124 122 120 115 131 96 85 37 151
115 163 197 192 185 202 227 243 321 137 146 108 122 142 150 159 160 155 151 140 134 123 126 129 126 146 161 167 168 169 166 154 153 147 143 151 142 134 138 127 126 128 131 128 110 82 47 231 336
188 203 161 207 198 215 312 37 70 125 138 144 146 156 161 162 164 156 157 150 133 121 135 128 118 118 138 156 155 166 158 149 152 144 128 128 130 126 124 126 124 131 122 114 68 64 100 96 81
321 298 353 121 169 136 355 70 73 125 135 156 154 160 163 166 165 161 154 156 141 143 134 141 131 120 121 134 131 134 145 142 138 130 115 114 109 107 113 115 122 132 131 116 188 293 11 93 99
17 96 51 90 119 108 94 83 106 128 148 163 158 161 169 170 164 163 153 147 135 143 138 128 143 143 137 132 129 124 133 139 113 119 109 107 100 96 106 126 130 151 138 89 6 89 184 87 79
311 96 71 96 127 127 81 351 346 99 139 165 169 170 171 173 170 168 167 157 149 146 149 153 153 131 153 143 142 128 129 133 127 121 117 125 128 110 127 146 123 62 109 29 57 319 54 67 101
53 53 9 92 131 112 126 16 332 177 193 169 172 169 181 185 177 175 171 166 160 158 154 167 168 164 165 153 158 140 141 138 134 136 141 130 146 170 157 188 204 283 259 26 21 355 18 13 60
60 94 287 213 182 193 37 178 216 203 215 209 247 177 169 185 184 182 177 175 173 172 166 182 175 161 151 152 156 156 159 150 140 132 168 170 179 166 172 203 169 120 153 11 15 41 61 56 119
110 146 231 163 210 162 191 172 213 207 213 287 295 166 169 176 190 187 180 182 186 184 168 164 171 181 163 155 166 175 167 172 165 171 193 218 205 211 207 190 166 151 110 25 14 42 53 58 77
160 148 254 164 188 174 205 222 184 206 209 236 163 180 177 177 185 187 183 189 191 182 179 173 174 185 178 172 169 178 173 178 185 134 175 203 220 211 190 196 185 152 40 65 83 62 79 58 75
143 134 169 338 210 159 200 188 201 204 214 219 191 174 193 183 178 186 190 191 190 183 183 185 183 184 203 196 181 179 186 192 202 191 180 194 206 202 180 161 192 168 91 135 69 58 71 57 63
123 140 184 181 196 114 213 215 238 209 210 215 200 206 167 180 184 187 190 193 193 193 198 198 197 195 206 215 197 189 187 190 198 203 202 201 228 228 203 201 176 197 218 203 64 353 276 63 51
136 181 191 172 161 73 124 295 239 209 233 216 216 209 179 178 173 181 188 188 193 197 199 210 201 203 209 210 200 205 189 195 207 206 212 238 240 222 208 225 204 200 197 178 187 263 65 83 22
169 207 190 164 145 212 189 246 258 213 215 228 231 210 184 179 175 184 184 192 197 201 209 216 212 218 216 204 204 202 203 206 205 218 234 239 246 215 210 220 218 215 231 200 200 217 111 81 73
224 153 205 171 175 124 210 59 269 124 235 231 227 204 198 189 186 191 194 191 198 206 208 218 222 222 220 223 221 217 218 212 219 219 226 236 231 215 202 216 221 211 219 216 191 186 134 123 96
241 120 54 119 140 9 229 164 275 206 226 205 223 207 199 194 199 203 202 212 203 207 210 216 222 226 223 228 226 228 222 220 218 217 222 223 214 212 205 212 214 215 219 208 213 201 197 182 262
107 65 13 8 7 221 172 173 232 221 188 204 207 200 198 200 196 198 206 206 203 213 214 217 219 229 227 225 225 223 223 222 219 223 231 232 227 216 211 212 221 219 220 213 217 217 214 200 211
189 148 155 196 195 268 50 280 260 239 188 207 194 187 191 202 207 206 212 210 214 218 217 210 225 228 231 228 218 222 225 224 233 232 235 230 232 225 212 224 228 225 229 234 240 242 236 230 204
219 142 193 103 318 77 318 309 298 15 293 124 147 180 182 200 213 213 207 209 210 208 209 215 220 228 231 232 221 222 224 222 224 219 222 221 237 236 228 224 222 224 231 231 243 250 246 233 209
153 169 69 27 140 147 300 268 239 284 254 247 170 178 186 200 206 212 209 207 208 218 227 230 227 229 228 232 223 223 229 230 224 222 219 227 232 241 246 240 232 228 224 234 246 244 237 220 216
303 225 79 122 126 146 187 262 216 218 206 179 170 179 182 191 203 214 218 214 209 204 231 211 218 224 226 228 231 226 229 232 234 226 220 228 238 246 254 255 259 241 231 227 238 236 225 221 222
180 198 136 128 220 103 157 263 292 158 144 153 177 180 187 196 197 213 220 219 220 217 231 215 226 231 237 232 235 232 233 231 233 233 225 229 237 242 248 246 247 247 242 228 224 235 233 238 233